Location: Franzen
(48.6167°N, 15.3833°E)
Time: 10:36:28
(UTC+00:00)

USA 215 - Pass Details

Date: 22 April 2021
Orbit: 1101 x 1107 km, 123.0° (Epoch: 14 May)

Event Time Altitude Azimuth Distance (km) Brightness Sun altitude
Exits shadow 21:21:35 44° 196° (SSW) 1,478 3.6 -25.3°
Maximum altitude 21:22:42 48° 225° (SW) 1,403 3.6 -25.4°
Drops below altitude 10° 21:29:00 10° 299° (WNW) 2,964 6.2 -25.9°
Sets 21:31:36 0° 305° (NW) 3,924 7.0 -26.0°
